Pittsfield, IL

12:48 PM CDT on July 21, 2017 (GMT -0500)
Pittsfield Penstone Municipal

Weather History for KPPQ - January, 2002

Change the Weather History Date:

Thursday, January 10, 2002

  Actual Average (KUIN) Record (KUIN)
Temperature  
Mean Temperature 42 °F -  
Max Temperature 48 °F 28 °F 60 °F (2017)
Min Temperature 37 °F 12 °F -21 °F (1982)
Degree Days  
Heating Degree Days 22    
Moisture  
Dew Point 37 °F    
Average Humidity 77    
Maximum Humidity 87    
Minimum Humidity 66    
Precipitation  
Precipitation 0.00 in - - ()
Sea Level Pressure  
Sea Level Pressure 29.95 in    
Wind  
Wind Speed 6 mph (NW)    
Max Wind Speed 12 mph    
Max Gust Speed 16 mph    
Visibility 10 miles    
Events      
Averages and records for this station are not official NWS values.
T = Trace of Precipitation, MM = Missing Value Source: NWS Daily Summary

Daily Weather History Graph

Daily Weather History Graph

Search for Another Location

Airport or City:

Trip Planner

Search our weather history database for the weather conditions in past years. The results will help you decide how hot, cold, wet, or windy it might be!

Date:

Astronomy

Jan. 10, 2002 Rise Set
Actual Time 7:23 AM CST 4:58 PM CST
Civil Twilight 6:53 AM CST 5:27 PM CST
Nautical Twilight 6:20 AM CST 6:01 PM CST
Astronomical Twilight 5:47 AM CST 6:33 PM CST
Moon 4:49 AM CST (1/10) 2:34 PM CST (1/10)
Length of Visible Light 10h 34m
Length of Day
9h 34m
Waning Crescent, 8% of the Moon is Illuminated
Jan 10
Waning Crescent
Jan 13
New
Jan 21
First Quarter
Jan 28
Full
Feb 4
Last Quarter

Hourly Weather History & Observations

Time (CST) Temp. Windchill Dew Point Humidity Pressure Visibility Wind Dir Wind Speed Gust Speed Precip Events Conditions
12:07 AM 44.6 °F 43.1 °F 37.4 °F 76% 29.87 in 10.0 mi WNW 3.5 mph - N/A   Clear
12:27 AM 44.6 °F 42.2 °F 37.4 °F 76% 29.86 in 10.0 mi WNW 4.6 mph - N/A   Clear
12:47 AM 42.8 °F 39.3 °F 35.6 °F 76% 29.86 in 10.0 mi WNW 5.8 mph - N/A   Clear
1:09 AM 44.6 °F 42.2 °F 37.4 °F 76% 29.87 in 10.0 mi WNW 4.6 mph - N/A   Clear
1:29 AM 42.8 °F 39.3 °F 35.6 °F 76% 29.87 in 10.0 mi NW 5.8 mph - N/A   Clear
1:47 AM 42.8 °F 40.1 °F 37.4 °F 81% 29.87 in 10.0 mi NW 4.6 mph - N/A   Clear
2:07 AM 42.8 °F 40.1 °F 37.4 °F 81% 29.88 in 10.0 mi WNW 4.6 mph - N/A   Clear
2:27 AM 42.8 °F 40.1 °F 37.4 °F 81% 29.89 in 10.0 mi WNW 4.6 mph - N/A   Clear
2:47 AM 42.8 °F 40.1 °F 37.4 °F 81% 29.89 in 10.0 mi WNW 4.6 mph - N/A   Clear
3:07 AM 42.8 °F 40.1 °F 37.4 °F 81% 29.88 in 10.0 mi West 4.6 mph - N/A   Clear
3:27 AM 42.8 °F 41.1 °F 37.4 °F 81% 29.88 in 10.0 mi West 3.5 mph - N/A   Clear
3:49 AM 42.8 °F 41.1 °F 37.4 °F 81% 29.89 in 10.0 mi West 3.5 mph - N/A   Clear
4:08 AM 42.8 °F 41.1 °F 37.4 °F 81% 29.89 in 10.0 mi West 3.5 mph - N/A   Scattered Clouds
4:27 AM 39.2 °F 37.0 °F 35.6 °F 87% 29.89 in 10.0 mi West 3.5 mph - N/A   Scattered Clouds
4:50 AM 42.8 °F 40.1 °F 37.4 °F 81% 29.89 in 10.0 mi West 4.6 mph - N/A   Mostly Cloudy
5:07 AM 39.2 °F 34.2 °F 35.6 °F 87% 29.91 in 10.0 mi NW 6.9 mph - N/A   Mostly Cloudy
5:27 AM 42.8 °F 38.6 °F 37.4 °F 81% 29.91 in 10.0 mi NW 6.9 mph - N/A   Mostly Cloudy
5:47 AM 42.8 °F 38.6 °F 37.4 °F 81% 29.92 in 10.0 mi WNW 6.9 mph - N/A   Mostly Cloudy
6:07 AM 42.8 °F 40.1 °F 37.4 °F 81% 29.92 in 10.0 mi NW 4.6 mph - N/A   Overcast
6:29 AM 42.8 °F 40.1 °F 37.4 °F 81% 29.93 in 10.0 mi WNW 4.6 mph - N/A   Overcast
6:47 AM 42.8 °F 41.1 °F 37.4 °F 81% 29.92 in 10.0 mi WNW 3.5 mph - N/A   Overcast
7:07 AM 41.0 °F 36.4 °F 37.4 °F 87% 29.92 in 10.0 mi NW 6.9 mph - N/A   Overcast
7:29 AM 42.8 °F 39.3 °F 37.4 °F 81% 29.93 in 10.0 mi NW 5.8 mph - N/A   Overcast
7:47 AM 42.8 °F 40.1 °F 37.4 °F 81% 29.94 in 10.0 mi NW 4.6 mph - N/A   Overcast
8:09 AM 42.8 °F 39.3 °F 37.4 °F 81% 29.94 in 10.0 mi NW 5.8 mph - N/A   Overcast
8:28 AM 42.8 °F 38.6 °F 37.4 °F 81% 29.95 in 10.0 mi NNW 6.9 mph - N/A   Overcast
8:49 AM 42.8 °F 38.6 °F 37.4 °F 81% 29.97 in 10.0 mi NNW 6.9 mph - N/A   Overcast
9:07 AM 42.8 °F 38.6 °F 37.4 °F 81% 29.97 in 10.0 mi NNW 6.9 mph - N/A   Overcast
9:27 AM 42.8 °F 38.6 °F 37.4 °F 81% 29.99 in 10.0 mi NNW 6.9 mph - N/A   Overcast
9:49 AM 42.8 °F 40.1 °F 37.4 °F 81% 30.00 in 10.0 mi NNW 4.6 mph - N/A   Overcast
10:08 AM 44.6 °F 41.4 °F 37.4 °F 76% 30.01 in 10.0 mi NNW 5.8 mph - N/A   Overcast
10:27 AM 44.6 °F 40.7 °F 37.4 °F 76% 30.02 in 10.0 mi NNW 6.9 mph - N/A   Overcast
10:48 AM 46.4 °F 44.3 °F 39.2 °F 76% 30.02 in 10.0 mi WNW 4.6 mph - N/A   Overcast
11:08 AM 44.6 °F 40.2 °F 37.4 °F 76% 30.02 in 10.0 mi NW 8.1 mph - N/A   Overcast
11:29 AM 46.4 °F 42.4 °F 39.2 °F 76% 30.01 in 10.0 mi NW 8.1 mph - N/A   Overcast
11:48 AM 46.4 °F 42.4 °F 37.4 °F 71% 30.01 in 10.0 mi NW 8.1 mph - N/A   Overcast
12:08 PM 46.4 °F 41.5 °F 37.4 °F 71% 30.00 in 10.0 mi NW 10.4 mph - N/A   Overcast
12:28 PM 46.4 °F 42.4 °F 37.4 °F 71% 29.99 in 10.0 mi NW 8.1 mph - N/A   Overcast
12:48 PM 46.4 °F 42.4 °F 37.4 °F 71% 29.99 in 10.0 mi NW 8.1 mph - N/A   Overcast
1:08 PM 46.4 °F 41.9 °F 35.6 °F 66% 29.98 in 10.0 mi NW 9.2 mph - N/A   Overcast
1:28 PM 48.2 °F - 39.2 °F 71% 29.97 in 10.0 mi NW 9.2 mph - N/A   Mostly Cloudy
1:48 PM 46.4 °F 41.1 °F 35.6 °F 66% 29.97 in 10.0 mi NW 11.5 mph 16.1 mph N/A   Mostly Cloudy
2:08 PM 46.4 °F 41.1 °F 37.4 °F 71% 29.97 in 10.0 mi NW 11.5 mph - N/A   Mostly Cloudy
2:29 PM 44.6 °F 39.7 °F 35.6 °F 71% 29.98 in 10.0 mi NW 9.2 mph - N/A   Scattered Clouds
2:48 PM 46.4 °F 41.9 °F 37.4 °F 71% 29.98 in 10.0 mi NW 9.2 mph - N/A   Scattered Clouds
3:08 PM 46.4 °F 41.1 °F 37.4 °F 71% 29.99 in 10.0 mi NW 11.5 mph - N/A   Clear
3:28 PM 44.6 °F 39.7 °F 35.6 °F 71% 29.99 in 10.0 mi NW 9.2 mph - N/A   Clear
3:48 PM 44.6 °F 39.2 °F 35.6 °F 71% 29.99 in 10.0 mi NW 10.4 mph - N/A   Clear
4:08 PM 44.6 °F 40.7 °F 35.6 °F 71% 29.99 in 10.0 mi WNW 6.9 mph - N/A   Clear
4:29 PM 44.6 °F 40.7 °F 35.6 °F 71% 30.00 in 10.0 mi WNW 6.9 mph - N/A   Clear
4:47 PM 42.8 °F 39.3 °F 35.6 °F 76% 30.01 in 10.0 mi WNW 5.8 mph - N/A   Clear
5:07 PM 42.8 °F 39.3 °F 35.6 °F 76% 30.02 in 10.0 mi WNW 5.8 mph - N/A   Clear
5:27 PM 42.8 °F 38.6 °F 35.6 °F 76% 30.02 in 10.0 mi NW 6.9 mph - N/A   Clear
5:47 PM 41.0 °F 37.1 °F 33.8 °F 76% 30.03 in 10.0 mi WNW 5.8 mph - N/A   Clear
6:07 PM 37.4 °F 32.8 °F 33.8 °F 87% 30.04 in 10.0 mi WNW 5.8 mph - N/A   Clear
6:27 PM 39.2 °F 35.0 °F 33.8 °F 81% 30.04 in 10.0 mi WNW 5.8 mph - N/A   Clear
6:48 PM 37.4 °F 32.8 °F 33.8 °F 87% 30.06 in 10.0 mi WNW 5.8 mph - N/A   Clear
7:08 PM 37.4 °F 32.1 °F 33.8 °F 87% 30.07 in 10.0 mi WNW 6.9 mph - N/A   Clear
7:30 PM 39.2 °F 35.0 °F 33.8 °F 81% 30.08 in 10.0 mi WNW 5.8 mph - N/A   Clear
7:47 PM 33.8 °F 28.6 °F 30.2 °F 87% 30.09 in 10.0 mi NW 5.8 mph - N/A   Clear
8:07 PM 33.8 °F 27.0 °F 32.0 °F 93% 30.09 in 10.0 mi NW 8.1 mph - N/A   Clear
8:28 PM 37.4 °F 30.8 °F 33.8 °F 87% 30.10 in 10.0 mi NW 9.2 mph - N/A   Clear
8:48 PM 37.4 °F 29.3 °F 33.8 °F 87% 30.11 in 10.0 mi NW 12.7 mph - N/A   Clear
9:08 PM 35.6 °F 30.7 °F 33.8 °F 93% 30.11 in 10.0 mi WNW 5.8 mph - N/A   Clear
9:28 PM 33.8 °F 28.6 °F 32.0 °F 93% 30.12 in 10.0 mi WNW 5.8 mph - N/A   Clear
9:48 PM 33.8 °F 27.7 °F 32.0 °F 93% 30.12 in 10.0 mi WNW 6.9 mph - N/A   Clear
10:08 PM 33.8 °F 28.6 °F 32.0 °F 93% 30.13 in 10.0 mi WNW 5.8 mph - N/A   Clear
10:28 PM 33.8 °F 28.6 °F 32.0 °F 93% 30.13 in 10.0 mi WNW 5.8 mph - N/A   Clear
10:48 PM 33.8 °F 28.6 °F 32.0 °F 93% 30.13 in 10.0 mi WNW 5.8 mph - N/A   Clear
11:08 PM 33.8 °F 29.6 °F 32.0 °F 93% 30.14 in 10.0 mi WNW 4.6 mph - N/A   Clear
11:28 PM 33.8 °F 29.6 °F 30.2 °F 87% 30.14 in 10.0 mi West 4.6 mph - N/A   Mostly Cloudy
11:48 PM 32.0 °F 27.5 °F 30.2 °F 93% 30.14 in 10.0 mi West 4.6 mph - N/A   Overcast